QPF
0.01 0.01 0.04 0.04 0.03 0.03 0.02 0.01 0.01 0.00 0.00 0.00 0.00 0.00 0.00 0.01 0.01 0.01 0.01 0.01 0.01 0.01 0.01 0.01 0.01 0.02 0.02 0.02 0.03 0.02 0.02 0.01 0.01 0.01 0.01 0.01 0.01 0.01 0.01 0.00 0.00 0.00 0.01
0.01 0.01 0.03 0.04 0.04 0.03 0.02 0.01 0.01 0.00 0.00 0.00 0.00 0.00 0.00 0.00 0.00 0.01 0.01 0.01 0.01 0.02 0.03 0.03 0.02 0.02 0.02 0.02 0.02 0.02 0.02 0.02 0.01 0.00 0.00 0.00 0.00 0.01 0.00 0.00 0.01 0.01 0.01
0.01 0.01 0.03 0.04 0.04 0.04 0.03 0.01 0.01 0.00 0.00 0.00 0.00 0.00 0.00 0.00 0.00 0.00 0.01 0.01 0.01 0.02 0.03 0.02 0.02 0.02 0.02 0.01 0.01 0.01 0.01 0.01 0.01 0.01 0.00 0.00 0.00 0.01 0.01 0.01 0.01 0.01 0.01
0.02 0.02 0.03 0.05 0.04 0.03 0.04 0.02 0.01 0.00 0.00 0.00 0.01 0.01 0.01 0.01 0.01 0.01 0.01 0.01 0.01 0.01 0.01 0.01 0.01 0.01 0.01 0.01 0.01 0.01 0.01 0.01 0.01 0.01 0.00 0.00 0.00 0.01 0.01 0.01 0.01 0.01 0.01
0.04 0.03 0.04 0.05 0.05 0.04 0.04 0.04 0.02 0.01 0.00 0.00 0.01 0.01 0.01 0.01 0.01 0.02 0.01 0.01 0.00 0.00 0.00 0.00 0.00 0.00 0.01 0.01 0.01 0.02 0.02 0.01 0.01 0.01 0.00 0.00 0.00 0.01 0.01 0.00 0.00 0.00 0.01
0.06 0.04 0.05 0.05 0.05 0.05 0.04 0.04 0.04 0.02 0.01 0.01 0.01 0.01 0.01 0.01 0.01 0.01 0.01 0.01 0.00 0.00 0.00 0.00 0.00 0.00 0.00 0.00 0.01 0.01 0.02 0.01 0.01 0.00 0.00 0.00 0.00 0.01 0.01 0.01 0.01 0.01 0.01
0.07 0.04 0.05 0.06 0.05 0.05 0.05 0.04 0.05 0.03 0.01 0.01 0.01 0.01 0.01 0.01 0.01 0.01 0.01 0.01 0.00 0.00 0.00 0.00 0.00 0.00 0.00 0.01 0.01 0.01 0.02 0.01 0.01 0.00 0.00 0.00 0.00 0.01 0.01 0.01 0.01 0.01 0.01
0.06 0.04 0.05 0.08 0.06 0.04 0.05 0.05 0.04 0.04 0.03 0.02 0.02 0.02 0.01 0.01 0.01 0.01 0.01 0.01 0.01 0.01 0.01 0.01 0.01 0.00 0.00 0.01 0.01 0.01 0.01 0.01 0.01 0.00 0.00 0.00 0.00 0.01 0.01 0.02 0.02 0.02 0.02
0.04 0.05 0.05 0.07 0.07 0.04 0.05 0.07 0.05 0.04 0.03 0.03 0.03 0.02 0.01 0.01 0.01 0.01 0.01 0.01 0.01 0.01 0.01 0.01 0.01 0.01 0.01 0.01 0.01 0.00 0.00 0.00 0.01 0.00 0.00 0.00 0.00 0.01 0.01 0.02 0.03 0.03 0.03
0.05 0.04 0.05 0.08 0.09 0.07 0.05 0.09 0.07 0.04 0.03 0.02 0.03 0.04 0.02 0.02 0.01 0.02 0.01 0.01 0.01 0.01 0.01 0.01 0.01 0.01 0.01 0.01 0.01 0.00 0.00 0.00 0.00 0.00 0.00 0.00 0.00 0.01 0.01 0.02 0.02 0.03 0.03
0.07 0.04 0.05 0.08 0.10 0.09 0.06 0.08 0.11 0.08 0.05 0.04 0.02 0.03 0.04 0.03 0.02 0.01 0.01 0.01 0.01 0.01 0.01 0.01 0.01 0.01 0.01 0.01 0.00 0.00 0.00 0.00 0.00 0.00 0.00 0.00 0.01 0.01 0.02 0.02 0.03 0.03 0.03
0.10 0.06 0.05 0.05 0.08 0.10 0.07 0.07 0.11 0.12 0.10 0.07 0.04 0.03 0.04 0.04 0.03 0.01 0.01 0.01 0.01 0.01 0.01 0.01 0.01 0.01 0.01 0.00 0.00 0.00 0.00 0.00 0.00 0.00 0.00 0.00 0.01 0.02 0.02 0.03 0.03 0.03 0.04
0.14 0.09 0.06 0.06 0.08 0.09 0.08 0.06 0.07 0.09 0.11 0.10 0.07 0.07 0.07 0.06 0.05 0.04 0.01 0.01 0.01 0.01 0.01 0.01 0.01 0.01 0.01 0.00 0.00 0.00 0.00 0.00 0.00 0.00 0.00 0.00 0.01 0.02 0.03 0.03 0.03 0.03 0.03
0.14 0.11 0.07 0.06 0.08 0.10 0.08 0.09 0.07 0.06 0.07 0.09 0.08 0.07 0.07 0.08 0.07 0.06 0.03 0.02 0.01 0.01 0.01 0.01 0.01 0.00 0.00 0.00 0.00 0.00 0.00 0.00 0.00 0.00 0.00 0.00 0.00 0.01 0.02 0.03 0.03 0.03 0.03
0.10 0.15 0.10 0.08 0.07 0.08 0.08 0.08 0.09 0.07 0.06 0.09 0.09 0.08 0.05 0.05 0.06 0.05 0.04 0.03 0.02 0.01 0.01 0.01 0.02 0.01 0.01 0.01 0.01 0.00 0.00 0.00 0.00 0.00 0.00 0.00 0.00 0.01 0.01 0.02 0.03 0.04 0.03
0.09 0.14 0.15 0.09 0.08 0.08 0.08 0.07 0.07 0.08 0.07 0.09 0.10 0.10 0.09 0.07 0.07 0.08 0.04 0.03 0.02 0.02 0.01 0.01 0.00 0.01 0.02 0.01 0.01 0.01 0.00 0.00 0.00 0.00 0.00 0.00 0.00 0.01 0.01 0.01 0.03 0.04 0.04
0.11 0.08 0.12 0.12 0.09 0.09 0.09 0.08 0.06 0.06 0.07 0.09 0.10 0.11 0.10 0.08 0.08 0.09 0.07 0.03 0.03 0.03 0.03 0.02 0.00 0.00 0.00 0.01 0.01 0.01 0.01 0.01 0.01 0.01 0.01 0.01 0.01 0.01 0.01 0.02 0.03 0.04 0.04
0.10 0.09 0.09 0.11 0.12 0.11 0.10 0.09 0.07 0.06 0.05 0.07 0.09 0.09 0.10 0.08 0.06 0.06 0.08 0.06 0.04 0.04 0.05 0.04 0.01 0.00 0.00 0.00 0.00 0.00 0.00 0.01 0.01 0.01 0.01 0.01 0.01 0.01 0.01 0.02 0.03 0.03 0.04
0.07 0.08 0.08 0.08 0.11 0.12 0.12 0.11 0.08 0.06 0.06 0.06 0.07 0.07 0.09 0.08 0.06 0.06 0.06 0.07 0.06 0.05 0.04 0.04 0.02 0.02 0.01 0.01 0.00 0.00 0.00 0.00 0.01 0.01 0.01 0.01 0.01 0.01 0.01 0.02 0.03 0.03 0.03
0.03 0.05 0.06 0.07 0.07 0.07 0.08 0.10 0.10 0.09 0.08 0.06 0.06 0.06 0.06 0.08 0.08 0.07 0.06 0.08 0.07 0.07 0.06 0.03 0.02 0.02 0.02 0.02 0.01 0.01 0.00 0.00 0.00 0.01 0.01 0.01 0.01 0.01 0.01 0.02 0.02 0.02 0.02
0.02 0.02 0.04 0.05 0.05 0.05 0.04 0.04 0.04 0.05 0.06 0.06 0.06 0.06 0.07 0.07 0.08 0.10 0.07 0.07 0.11 0.10 0.09 0.07 0.03 0.02 0.02 0.01 0.01 0.00 0.00 0.00 0.00 0.00 0.00 0.01 0.01 0.01 0.02 0.02 0.02 0.02 0.02
0.01 0.02 0.03 0.04 0.05 0.05 0.04 0.03 0.02 0.01 0.01 0.01 0.02 0.03 0.04 0.05 0.05 0.08 0.09 0.06 0.06 0.10 0.11 0.11 0.08 0.05 0.03 0.02 0.01 0.01 0.01 0.01 0.01 0.00 0.00 0.00 0.01 0.01 0.01 0.02 0.02 0.02 0.02
0.00 0.01 0.03 0.04 0.05 0.05 0.04 0.03 0.02 0.01 0.01 0.01 0.01 0.01 0.01 0.02 0.03 0.03 0.04 0.05 0.04 0.04 0.06 0.08 0.08 0.08 0.06 0.04 0.03 0.03 0.02 0.01 0.01 0.01 0.01 0.01 0.01 0.01 0.01 0.01 0.02 0.02 0.02
0.00 0.01 0.03 0.04 0.05 0.05 0.05 0.04 0.03 0.02 0.01 0.01 0.00 0.00 0.01 0.01 0.01 0.02 0.02 0.02 0.02 0.02 0.02 0.03 0.04 0.05 0.03 0.02 0.02 0.01 0.02 0.01 0.02 0.02 0.01 0.01 0.01 0.01 0.01 0.01 0.01 0.01 0.02
0.00 0.01 0.02 0.04 0.05 0.05 0.05 0.05 0.04 0.04 0.02 0.01 0.01 0.00 0.00 0.00 0.00 0.01 0.01 0.01 0.01 0.01 0.01 0.01 0.02 0.03 0.03 0.02 0.01 0.01 0.01 0.01 0.01 0.02 0.02 0.01 0.01 0.01 0.01 0.01 0.01 0.01 0.01
0.01 0.01 0.01 0.02 0.04 0.04 0.03 0.03 0.03 0.03 0.03 0.02 0.01 0.00 0.00 0.00 0.00 0.00 0.00 0.00 0.00 0.00 0.00 0.00 0.01 0.01 0.02 0.02 0.01 0.01 0.01 0.01 0.01 0.01 0.01 0.01 0.01 0.01 0.01 0.02 0.02 0.01 0.01
MSLP
1015.93 1015.60 1015.40 1015.36 1015.46 1015.65 1015.88 1016.08 1016.23 1016.30 1016.31 1016.28 1016.26 1016.29 1016.37 1016.51 1016.68 1016.85 1017.00 1017.08 1017.11 1017.10 1017.06 1017.03 1017.03 1017.06 1017.13 1017.20 1017.27 1017.31 1017.31 1017.26 1017.19 1017.11 1017.04 1016.99 1016.96 1016.94 1016.91 1016.87 1016.81 1016.73 1016.65
1015.78 1015.50 1015.35 1015.34 1015.46 1015.66 1015.90 1016.11 1016.26 1016.34 1016.36 1016.35 1016.35 1016.40 1016.50 1016.65 1016.84 1017.02 1017.16 1017.25 1017.29 1017.28 1017.25 1017.23 1017.23 1017.27 1017.33 1017.40 1017.45 1017.47 1017.46 1017.41 1017.35 1017.28 1017.22 1017.17 1017.15 1017.12 1017.08 1017.02 1016.94 1016.85 1016.76
1015.58 1015.34 1015.23 1015.26 1015.41 1015.64 1015.89 1016.12 1016.29 1016.39 1016.43 1016.44 1016.47 1016.52 1016.63 1016.78 1016.95 1017.11 1017.24 1017.32 1017.34 1017.34 1017.32 1017.30 1017.31 1017.35 1017.41 1017.47 1017.52 1017.55 1017.54 1017.51 1017.46 1017.41 1017.37 1017.34 1017.31 1017.28 1017.22 1017.15 1017.04 1016.93 1016.84
1015.39 1015.20 1015.14 1015.22 1015.40 1015.66 1015.94 1016.19 1016.37 1016.49 1016.55 1016.57 1016.60 1016.65 1016.74 1016.86 1016.99 1017.11 1017.20 1017.25 1017.27 1017.26 1017.24 1017.23 1017.25 1017.29 1017.36 1017.43 1017.48 1017.52 1017.53 1017.52 1017.51 1017.49 1017.47 1017.46 1017.43 1017.39 1017.32 1017.23 1017.11 1016.98 1016.88
1015.32 1015.19 1015.18 1015.29 1015.52 1015.80 1016.08 1016.34 1016.53 1016.65 1016.71 1016.73 1016.74 1016.77 1016.82 1016.89 1016.97 1017.04 1017.09 1017.10 1017.09 1017.07 1017.05 1017.05 1017.07 1017.12 1017.19 1017.27 1017.34 1017.40 1017.44 1017.46 1017.48 1017.50 1017.51 1017.51 1017.49 1017.44 1017.36 1017.25 1017.12 1016.99 1016.88
1015.44 1015.36 1015.40 1015.56 1015.80 1016.09 1016.37 1016.61 1016.78 1016.88 1016.92 1016.91 1016.89 1016.88 1016.88 1016.90 1016.92 1016.94 1016.94 1016.92 1016.89 1016.85 1016.83 1016.82 1016.84 1016.89 1016.96 1017.04 1017.12 1017.19 1017.26 1017.32 1017.37 1017.42 1017.46 1017.48 1017.47 1017.41 1017.33 1017.20 1017.07 1016.94 1016.83
1015.78 1015.76 1015.85 1016.03 1016.28 1016.54 1016.79 1016.99 1017.11 1017.17 1017.16 1017.11 1017.06 1017.00 1016.96 1016.92 1016.90 1016.87 1016.83 1016.78 1016.72 1016.67 1016.63 1016.61 1016.62 1016.65 1016.71 1016.78 1016.86 1016.94 1017.02 1017.10 1017.19 1017.26 1017.32 1017.35 1017.34 1017.29 1017.19 1017.07 1016.94 1016.82 1016.73
1016.31 1016.35 1016.47 1016.67 1016.89 1017.12 1017.31 1017.44 1017.49 1017.49 1017.43 1017.34 1017.24 1017.15 1017.08 1017.01 1016.95 1016.88 1016.81 1016.74 1016.65 1016.58 1016.52 1016.48 1016.46 1016.47 1016.49 1016.54 1016.59 1016.66 1016.75 1016.84 1016.93 1017.02 1017.08 1017.12 1017.11 1017.05 1016.96 1016.84 1016.72 1016.62 1016.55
1016.96 1017.05 1017.20 1017.39 1017.58 1017.74 1017.85 1017.90 1017.88 1017.81 1017.71 1017.58 1017.47 1017.36 1017.26 1017.18 1017.10 1017.02 1016.92 1016.82 1016.72 1016.62 1016.53 1016.46 1016.40 1016.36 1016.34 1016.34 1016.36 1016.40 1016.47 1016.54 1016.63 1016.71 1016.77 1016.79 1016.77 1016.71 1016.61 1016.50 1016.39 1016.32 1016.28
1017.63 1017.76 1017.92 1018.09 1018.23 1018.33 1018.36 1018.33 1018.25 1018.12 1017.98 1017.84 1017.72 1017.61 1017.52 1017.43 1017.34 1017.25 1017.14 1017.02 1016.90 1016.77 1016.65 1016.54 1016.44 1016.35 1016.28 1016.23 1016.20 1016.19 1016.21 1016.25 1016.31 1016.36 1016.40 1016.40 1016.36 1016.29 1016.18 1016.07 1015.97 1015.91 1015.91
1018.22 1018.39 1018.56 1018.70 1018.79 1018.82 1018.78 1018.69 1018.56 1018.40 1018.25 1018.11 1018.00 1017.90 1017.82 1017.74 1017.65 1017.55 1017.44 1017.30 1017.16 1017.01 1016.86 1016.71 1016.57 1016.43 1016.30 1016.19 1016.10 1016.03 1016.00 1015.98 1015.99 1016.00 1016.00 1015.96 1015.90 1015.80 1015.68 1015.56 1015.46 1015.41 1015.42
1018.68 1018.87 1019.04 1019.15 1019.20 1019.18 1019.09 1018.96 1018.80 1018.65 1018.50 1018.38 1018.29 1018.22 1018.15 1018.08 1017.99 1017.88 1017.75 1017.60 1017.44 1017.28 1017.10 1016.93 1016.75 1016.57 1016.39 1016.22 1016.07 1015.94 1015.83 1015.76 1015.70 1015.66 1015.60 1015.52 1015.42 1015.29 1015.14 1015.00 1014.89 1014.83 1014.84
1019.00 1019.20 1019.36 1019.45 1019.46 1019.41 1019.30 1019.16 1019.01 1018.87 1018.75 1018.66 1018.59 1018.53 1018.47 1018.40 1018.30 1018.18 1018.03 1017.87 1017.70 1017.52 1017.34 1017.15 1016.95 1016.74 1016.52 1016.30 1016.09 1015.89 1015.72 1015.58 1015.45 1015.34 1015.23 1015.10 1014.95 1014.78 1014.61 1014.44 1014.30 1014.22 1014.20
1019.18 1019.38 1019.53 1019.60 1019.61 1019.55 1019.44 1019.32 1019.19 1019.08 1019.00 1018.94 1018.89 1018.84 1018.77 1018.68 1018.56 1018.42 1018.26 1018.09 1017.91 1017.73 1017.54 1017.35 1017.14 1016.91 1016.66 1016.40 1016.14 1015.88 1015.65 1015.44 1015.24 1015.07 1014.90 1014.72 1014.52 1014.32 1014.11 1013.91 1013.73 1013.61 1013.56
1019.27 1019.47 1019.60 1019.67 1019.68 1019.63 1019.55 1019.46 1019.38 1019.31 1019.26 1019.22 1019.18 1019.12 1019.03 1018.91 1018.76 1018.60 1018.42 1018.24 1018.06 1017.88 1017.70 1017.51 1017.30 1017.06 1016.79 1016.49 1016.19 1015.88 1015.59 1015.31 1015.06 1014.83 1014.60 1014.38 1014.15 1013.92 1013.68 1013.44 1013.24 1013.07 1012.97
1019.31 1019.50 1019.63 1019.70 1019.72 1019.70 1019.67 1019.63 1019.59 1019.56 1019.54 1019.51 1019.45 1019.37 1019.25 1019.09 1018.91 1018.72 1018.52 1018.34 1018.16 1018.00 1017.83 1017.64 1017.43 1017.17 1016.88 1016.56 1016.21 1015.86 1015.51 1015.18 1014.88 1014.60 1014.34 1014.09 1013.84 1013.58 1013.33 1013.07 1012.84 1012.63 1012.48
1019.34 1019.51 1019.64 1019.72 1019.77 1019.79 1019.80 1019.82 1019.83 1019.83 1019.83 1019.79 1019.71 1019.60 1019.44 1019.24 1019.03 1018.82 1018.61 1018.43 1018.26 1018.10 1017.93 1017.75 1017.53 1017.26 1016.95 1016.59 1016.20 1015.80 1015.41 1015.04 1014.70 1014.38 1014.10 1013.83 1013.57 1013.31 1013.05 1012.80 1012.55 1012.32 1012.11
1019.37 1019.53 1019.66 1019.76 1019.84 1019.90 1019.97 1020.03 1020.08 1020.11 1020.10 1020.05 1019.95 1019.80 1019.60 1019.38 1019.14 1018.92 1018.71 1018.53 1018.37 1018.22 1018.06 1017.86 1017.62 1017.33 1016.98 1016.58 1016.16 1015.72 1015.29 1014.88 1014.51 1014.17 1013.86 1013.59 1013.33 1013.09 1012.85 1012.60 1012.36 1012.12 1011.89
1019.40 1019.56 1019.69 1019.80 1019.92 1020.03 1020.14 1020.24 1020.32 1020.36 1020.36 1020.29 1020.16 1019.98 1019.75 1019.51 1019.27 1019.04 1018.85 1018.68 1018.53 1018.38 1018.20 1017.99 1017.72 1017.39 1017.00 1016.57 1016.11 1015.63 1015.17 1014.73 1014.32 1013.96 1013.65 1013.37 1013.12 1012.89 1012.67 1012.46 1012.23 1012.00 1011.77
1019.42 1019.57 1019.71 1019.85 1020.00 1020.14 1020.29 1020.42 1020.52 1020.57 1020.56 1020.48 1020.33 1020.13 1019.89 1019.65 1019.41 1019.20 1019.03 1018.87 1018.73 1018.57 1018.38 1018.14 1017.84 1017.47 1017.04 1016.57 1016.08 1015.57 1015.08 1014.61 1014.18 1013.80 1013.46 1013.17 1012.92 1012.71 1012.51 1012.33 1012.14 1011.94 1011.72
1019.40 1019.56 1019.72 1019.88 1020.05 1020.23 1020.40 1020.56 1020.67 1020.73 1020.71 1020.62 1020.46 1020.25 1020.02 1019.79 1019.57 1019.38 1019.23 1019.09 1018.95 1018.79 1018.58 1018.32 1017.98 1017.58 1017.13 1016.63 1016.11 1015.58 1015.07 1014.57 1014.11 1013.70 1013.33 1013.01 1012.75 1012.53 1012.35 1012.19 1012.04 1011.88 1011.70
1019.36 1019.54 1019.71 1019.89 1020.08 1020.27 1020.46 1020.63 1020.75 1020.81 1020.80 1020.70 1020.55 1020.35 1020.13 1019.92 1019.72 1019.56 1019.43 1019.31 1019.17 1019.01 1018.79 1018.51 1018.15 1017.74 1017.27 1016.76 1016.24 1015.71 1015.18 1014.66 1014.16 1013.71 1013.29 1012.92 1012.62 1012.37 1012.19 1012.05 1011.93 1011.82 1011.68
1019.29 1019.49 1019.67 1019.86 1020.06 1020.26 1020.46 1020.63 1020.76 1020.82 1020.81 1020.73 1020.58 1020.40 1020.20 1020.01 1019.85 1019.71 1019.60 1019.49 1019.36 1019.20 1018.97 1018.69 1018.34 1017.93 1017.48 1016.99 1016.49 1015.96 1015.43 1014.90 1014.37 1013.85 1013.37 1012.93 1012.56 1012.26 1012.05 1011.90 1011.81 1011.73 1011.64
1019.21 1019.42 1019.61 1019.80 1019.99 1020.19 1020.39 1020.56 1020.69 1020.76 1020.76 1020.69 1020.56 1020.40 1020.23 1020.06 1019.92 1019.80 1019.70 1019.60 1019.48 1019.32 1019.11 1018.84 1018.52 1018.15 1017.74 1017.31 1016.84 1016.35 1015.84 1015.29 1014.73 1014.15 1013.59 1013.07 1012.61 1012.24 1011.97 1011.80 1011.70 1011.66 1011.61
1019.13 1019.35 1019.53 1019.71 1019.88 1020.06 1020.25 1020.41 1020.54 1020.62 1020.64 1020.58 1020.48 1020.34 1020.19 1020.04 1019.91 1019.81 1019.71 1019.62 1019.51 1019.36 1019.18 1018.94 1018.67 1018.36 1018.03 1017.66 1017.26 1016.83 1016.34 1015.81 1015.22 1014.59 1013.96 1013.34 1012.79 1012.33 1011.99 1011.77 1011.66 1011.62 1011.60
1019.05 1019.27 1019.44 1019.58 1019.72 1019.88 1020.04 1020.19 1020.32 1020.40 1020.43 1020.40 1020.32 1020.20 1020.07 1019.94 1019.82 1019.72 1019.62 1019.53 1019.43 1019.31 1019.15 1018.97 1018.76 1018.53 1018.28 1018.01 1017.69 1017.33 1016.89 1016.38 1015.79 1015.13 1014.44 1013.75 1013.11 1012.56 1012.14 1011.86 1011.70 1011.65 1011.64
Thickness
5733 5735 5736 5736 5736 5736 5736 5736 5736 5736 5735 5735 5734 5733 5733 5733 5732 5731 5731 5730 5730 5730 5730 5729 5729 5728 5728 5727 5726 5726 5725 5725 5724 5723 5723 5723 5722 5722 5722 5721 5721 5721 5721
5732 5733 5733 5734 5733 5733 5733 5733 5733 5733 5733 5732 5732 5731 5731 5730 5730 5729 5728 5728 5728 5728 5727 5727 5726 5725 5725 5724 5723 5723 5722 5721 5721 5720 5719 5719 5719 5718 5718 5718 5717 5717 5717
5729 5730 5730 5731 5731 5730 5730 5730 5730 5730 5730 5729 5729 5729 5728 5728 5727 5726 5726 5726 5725 5725 5724 5724 5723 5722 5722 5721 5720 5719 5719 5718 5717 5717 5716 5716 5715 5715 5715 5714 5714 5714 5713
5725 5726 5726 5727 5727 5727 5727 5727 5727 5727 5726 5726 5726 5726 5725 5725 5724 5724 5723 5723 5722 5722 5721 5720 5719 5719 5718 5718 5717 5716 5716 5715 5714 5713 5713 5712 5712 5712 5711 5711 5711 5710 5709
5719 5721 5722 5722 5723 5723 5723 5723 5723 5723 5723 5723 5723 5723 5722 5722 5721 5721 5720 5719 5719 5718 5718 5717 5716 5715 5715 5714 5714 5713 5712 5712 5711 5710 5709 5709 5709 5708 5708 5707 5707 5706 5706
5713 5715 5716 5718 5718 5719 5719 5719 5719 5719 5719 5719 5719 5719 5719 5719 5718 5717 5717 5716 5715 5715 5714 5713 5713 5712 5711 5711 5710 5710 5709 5708 5708 5707 5706 5705 5705 5705 5705 5704 5703 5703 5702
5707 5710 5711 5713 5713 5714 5714 5715 5715 5715 5715 5715 5715 5715 5715 5715 5714 5714 5713 5712 5712 5711 5711 5710 5709 5709 5708 5707 5707 5706 5705 5704 5704 5703 5702 5702 5701 5701 5701 5701 5700 5699 5698
5702 5704 5706 5707 5708 5709 5710 5710 5710 5710 5710 5710 5710 5711 5710 5710 5710 5709 5709 5708 5708 5707 5707 5706 5706 5705 5704 5704 5703 5702 5702 5701 5700 5699 5699 5698 5698 5698 5698 5697 5696 5696 5695
5696 5698 5700 5701 5701 5703 5704 5704 5705 5705 5705 5705 5705 5705 5705 5705 5705 5704 5704 5704 5703 5703 5703 5702 5702 5701 5700 5700 5699 5699 5698 5697 5696 5696 5695 5695 5694 5694 5694 5694 5693 5692 5691
5688 5691 5693 5694 5695 5697 5698 5698 5699 5700 5700 5700 5700 5700 5700 5700 5700 5699 5699 5699 5698 5698 5698 5698 5697 5697 5696 5695 5695 5695 5694 5693 5692 5692 5691 5691 5690 5690 5690 5690 5689 5688 5687
5681 5684 5687 5688 5689 5690 5691 5692 5693 5694 5694 5694 5694 5694 5694 5694 5694 5694 5694 5693 5693 5693 5693 5693 5692 5692 5692 5691 5690 5690 5689 5689 5688 5687 5687 5687 5686 5686 5686 5686 5685 5684 5683
5673 5676 5680 5682 5683 5684 5684 5685 5686 5687 5688 5688 5688 5688 5688 5688 5688 5688 5688 5688 5688 5688 5688 5687 5687 5687 5686 5686 5685 5685 5684 5683 5683 5682 5682 5682 5682 5682 5682 5681 5680 5680 5679
5666 5668 5672 5675 5677 5678 5678 5679 5680 5680 5681 5681 5682 5681 5682 5682 5682 5682 5682 5682 5682 5682 5682 5682 5682 5681 5681 5680 5680 5679 5679 5678 5678 5677 5677 5677 5677 5677 5677 5676 5676 5675 5674
5660 5662 5665 5667 5670 5671 5672 5673 5673 5674 5674 5675 5675 5675 5675 5675 5675 5675 5676 5676 5676 5676 5676 5676 5676 5675 5675 5675 5674 5674 5673 5672 5672 5672 5672 5671 5671 5671 5671 5671 5671 5670 5670
5654 5656 5660 5663 5664 5665 5666 5667 5667 5668 5668 5668 5668 5668 5668 5668 5668 5668 5669 5670 5670 5670 5670 5670 5670 5670 5669 5669 5669 5668 5668 5667 5666 5666 5666 5666 5665 5665 5665 5665 5666 5665 5665
5648 5650 5652 5655 5657 5658 5659 5660 5661 5661 5661 5661 5662 5662 5662 5662 5662 5662 5663 5664 5664 5664 5664 5664 5663 5663 5663 5663 5662 5662 5662 5661 5661 5660 5660 5659 5659 5659 5659 5659 5659 5659 5658
5642 5644 5647 5649 5650 5652 5653 5654 5654 5655 5655 5655 5655 5656 5656 5656 5656 5656 5656 5657 5657 5658 5658 5657 5657 5657 5657 5656 5656 5656 5656 5655 5654 5654 5653 5653 5652 5652 5651 5651 5651 5651 5651
5637 5639 5641 5643 5644 5646 5646 5647 5648 5648 5648 5648 5649 5649 5649 5649 5650 5650 5650 5650 5650 5651 5651 5651 5650 5650 5649 5649 5649 5649 5649 5648 5648 5647 5647 5646 5645 5644 5643 5643 5642 5642 5642
5632 5633 5635 5636 5638 5639 5640 5640 5641 5641 5642 5642 5642 5641 5641 5642 5643 5643 5643 5642 5643 5643 5644 5643 5643 5642 5642 5642 5642 5642 5642 5641 5641 5640 5639 5638 5637 5636 5635 5634 5634 5633 5633
5626 5627 5628 5629 5631 5632 5632 5633 5634 5634 5635 5634 5634 5634 5634 5634 5635 5635 5635 5635 5635 5636 5636 5636 5635 5635 5634 5634 5635 5635 5635 5634 5634 5633 5632 5630 5629 5628 5626 5625 5625 5624 5623
5619 5621 5622 5623 5623 5624 5625 5625 5625 5624 5625 5626 5626 5626 5626 5626 5627 5627 5627 5627 5627 5627 5627 5627 5627 5627 5626 5626 5625 5626 5627 5627 5626 5625 5623 5622 5620 5619 5618 5617 5615 5615 5614
5613 5615 5615 5616 5616 5617 5617 5617 5617 5617 5617 5617 5617 5617 5617 5617 5618 5618 5618 5618 5618 5618 5618 5618 5618 5617 5617 5616 5615 5615 5616 5617 5617 5617 5615 5613 5611 5610 5609 5608 5606 5605 5604
5607 5608 5610 5609 5610 5610 5610 5610 5610 5609 5608 5608 5608 5608 5608 5609 5609 5610 5610 5609 5609 5609 5609 5609 5608 5608 5607 5606 5605 5604 5604 5604 5604 5606 5605 5603 5601 5599 5598 5598 5597 5596 5595
5602 5602 5603 5604 5603 5603 5602 5602 5601 5600 5599 5599 5599 5600 5600 5601 5602 5602 5601 5601 5600 5600 5600 5599 5599 5598 5598 5597 5596 5595 5593 5593 5592 5594 5594 5592 5590 5589 5588 5587 5586 5586 5585
5597 5596 5596 5596 5596 5596 5595 5594 5593 5592 5591 5591 5592 5592 5593 5593 5593 5593 5593 5592 5592 5591 5591 5590 5589 5589 5588 5588 5587 5586 5584 5583 5581 5581 5583 5583 5580 5579 5578 5577 5576 5575 5575
5590 5589 5589 5590 5589 5589 5588 5587 5585 5584 5584 5583 5584 5584 5584 5584 5585 5585 5584 5584 5583 5583 5582 5582 5581 5580 5579 5578 5577 5576 5575 5574 5572 5570 5571 5572 5571 5570 5568 5567 5566 5566 5565